[[{"header":{"parameterUnit":"m.s-1","parameterCategory":1,"la1":30.2991,"la2":30.254,"lo1":-89.0895,"lo2":-89.0444,"dy":0.0017,"dx":0.0017,"nx":28,"ny":28,"refTime":"2025-01-04T09:00:00:Z","depth":0,"parameterNumber":2,"parameterNumberName":"U-component_of_WINDS"},"data":[0,0,0,0,0,0,0,0,0,0,0,0,0,0,0,0,0,0,0,0,0,0,0,0,0,0,0,0,0,0,0,0,0,0,0,0,0,0,0,0,0,0,0,0,0,0,0,0,0,0,0,0,0,0,0,0,0,0,-1.2504,-1.2505,0,-1.2546,-1.2546,-1.2547,-1.2574,-1.2575,-1.2575,-1.2575,-1.2617,-1.2618,-1.2619,0,0,0,0,0,0,0,0,0,0,0,0,0,-1.245,-1.2451,-1.2504,-1.2505,-1.2505,-1.2546,-1.2546,-1.2547,-1.2574,-1.2575,-1.2575,-1.2575,-1.2617,-1.2618,-1.2619,0,0,0,0,0,0,0,0,0,0,0,0,0,-1.2481,-1.2451,-1.2504,-1.2524,-1.2526,-1.2545,-1.2546,-1.2547,-1.2574,-1.2575,-1.2575,-1.2575,-1.2617,-1.2618,-1.2619,-1.2622,0,0,-1.2624,-1.2624,0,0,0,0,0,0,0,0,-1.2479,-1.2483,-1.2521,-1.2523,-1.2525,-1.2555,-1.2543,-1.2572,-1.2574,-1.2556,-1.2575,-1.2575,-1.2596,-1.2599,-1.2607,-1.2624,-1.2626,-1.2624,-1.2625,-1.2625,-1.2626,0,0,0,0,0,0,0,-1.2477,-1.2481,-1.2521,-1.2521,-1.2524,-1.2531,-1.2536,-1.2548,-1.2574,-1.2558,-1.256,-1.2564,-1.2598,-1.2605,-1.2608,-1.2627,-1.2624,-1.2625,-1.2626,-1.2626,-1.2649,-1.2649,0,0,0,0,0,0,-1.2472,-1.2479,-1.2519,-1.2522,-1.2502,-1.2532,-1.2537,-1.2545,-1.2574,-1.2579,-1.2564,-1.2565,-1.2603,-1.2606,-1.2609,-1.2615,-1.2625,-1.2627,-1.2627,-1.265,-1.2649,-1.2649,0,0,0,0,0,0,-1.247,-1.2475,-1.2518,-1.2501,-1.2507,-1.2532,-1.2541,-1.2546,-1.2553,-1.2579,-1.2584,-1.2567,-1.2603,-1.2607,-1.2619,-1.2617,-1.2627,-1.2628,-1.265,-1.265,-1.2649,-1.2626,0,0,0,0,0,0,-1.2469,-1.2474,-1.2475,-1.2501,-1.2508,-1.2526,-1.2541,-1.2547,-1.2556,-1.2558,-1.2583,-1.2587,-1.2603,-1.2617,-1.262,-1.2619,-1.263,-1.265,-1.265,-1.2649,-1.2627,-1.2624,-1.2623,0,0,0,0,0,-1.2467,-1.2467,-1.2475,-1.248,-1.251,-1.2526,-1.253,-1.2549,-1.2555,-1.2557,-1.2573,-1.2586,-1.2616,-1.2618,-1.2622,-1.2621,-1.265,-1.265,-1.2649,-1.2628,-1.2625,-1.2623,0,0,0,0,0,0,-1.2441,-1.2471,-1.248,-1.2489,-1.2505,-1.2531,-1.2533,-1.2546,-1.256,-1.2561,-1.2584,-1.259,-1.2599,-1.2611,-1.2612,-1.2625,-1.2635,-1.2635,-1.2617,-1.2615,-1.2613,-1.2609,-1.2631,0,0,0,0,0,-1.2436,-1.2446,-1.2472,-1.2478,-1.2485,-1.2508,-1.2515,-1.2529,-1.2546,-1.2553,-1.257,-1.2587,-1.26,-1.2608,-1.2622,-1.2629,-1.2635,-1.263,-1.2628,-1.2626,-1.2626,-1.2631,-1.263,-1.2647,-1.2647,-1.2647,0,0,-1.2426,-1.2444,-1.2449,-1.2473,-1.2487,-1.2497,-1.2513,-1.2524,-1.2532,-1.2554,-1.2566,-1.258,-1.26,-1.2609,-1.2614,-1.262,-1.2623,-1.2626,-1.2624,-1.2625,-1.2631,-1.2629,-1.2627,-1.2647,-1.2647,-1.2647,0,0,-1.2414,-1.2428,-1.2434,-1.2448,-1.2469,-1.2484,-1.2485,-1.251,-1.2519,-1.2532,-1.2549,-1.256,-1.2582,-1.2595,-1.2605,-1.2599,-1.2611,-1.2603,-1.2592,-1.2596,-1.2595,-1.2594,-1.2591,-1.259,-1.2602,-1.2602,-1.2602,0,-1.2399,-1.2415,-1.2436,-1.2445,-1.2455,-1.2477,-1.2483,-1.2495,-1.2519,-1.2526,-1.2532,-1.2561,-1.2575,-1.2589,-1.2587,-1.2594,-1.2597,-1.2599,-1.2593,-1.2592,-1.2592,-1.259,-1.2589,-1.2601,-1.2601,-1.2601,-1.2601,0,-1.2396,-1.2407,-1.241,-1.2432,-1.2443,-1.2451,-1.2473,-1.2481,-1.2493,-1.2508,-1.2521,-1.2539,-1.2557,-1.2562,-1.2574,-1.2577,-1.2579,-1.2589,-1.2599,-1.2588,-1.2587,-1.2586,-1.2599,-1.26,-1.26,-1.26,0,0,-1.2368,-1.2402,-1.2403,-1.2413,-1.2438,-1.2447,-1.2456,-1.2474,-1.248,-1.2497,-1.2505,-1.2524,-1.2533,-1.2544,-1.2558,-1.2563,-1.2556,-1.2572,-1.2573,-1.2568,-1.2561,-1.2553,-1.2552,-1.2565,-1.2565,-1.2565,-1.2559,0,-1.2359,-1.2376,-1.2395,-1.2405,-1.2416,-1.2437,-1.2445,-1.2461,-1.2476,-1.2487,-1.2503,-1.2516,-1.2527,-1.2534,-1.2539,-1.2556,-1.2555,-1.2557,-1.2573,-1.2573,-1.2567,-1.2551,-1.2543,-1.2536,-1.2559,-1.2558,-1.2558,0,-1.2351,-1.2366,-1.2377,-1.2401,-1.2407,-1.2413,-1.2431,-1.2442,-1.2461,-1.2471,-1.2484,-1.2499,-1.251,-1.2519,-1.2535,-1.2536,-1.2544,-1.2553,-1.2554,-1.2555,-1.2565,-1.2552,-1.2534,-1.2533,-1.2558,-1.2558,-1.2558,0,-1.2328,-1.2352,-1.2362,-1.237,-1.2399,-1.2403,-1.2415,-1.2435,-1.2444,-1.246,-1.2466,-1.2483,-1.2493,-1.2506,-1.2525,-1.253,-1.2539,-1.255,-1.2548,-1.2547,-1.2548,-1.2548,-1.2531,-1.2554,-1.2554,-1.2554,-1.2554,0,-1.2316,-1.2322,-1.2352,-1.2358,-1.2366,-1.2388,-1.2395,-1.2409,-1.2426,-1.2436,-1.2455,-1.2464,-1.249,-1.2501,-1.2517,-1.2528,-1.2532,-1.2541,-1.2544,-1.2538,-1.2537,-1.2544,-1.2544,-1.2554,-1.2554,-1.2554,-1.2554,0,-1.2292,-1.2312,-1.2325,-1.2351,-1.2357,-1.2362,-1.2385,-1.2392,-1.2407,-1.2419,-1.2423,-1.2448,-1.2463,-1.2484,-1.2505,-1.2516,-1.2524,-1.2531,-1.2517,-1.252,-1.2517,-1.2516,-1.2503,-1.2502,-1.2526,-1.2525,-1.2525,0,-1.2283,-1.2288,-1.2315,-1.2322,-1.2334,-1.2346,-1.2356,-1.2378,-1.2388,-1.241,-1.2414,-1.2431,-1.2445,-1.2468,-1.2488,-1.2505,-1.2512,-1.2506,-1.2514,-1.2508,-1.2511,-1.2511,-1.2511,-1.2504,-1.2503,-1.2503,-1.2503,0,-1.2264,-1.2274,-1.2287,-1.2304,-1.2315,-1.2329,-1.2345,-1.235,-1.2376,-1.2386,-1.2401,-1.2412,-1.2434,-1.245,-1.247,-1.2483,-1.2497,-1.25,-1.2501,-1.2494,-1.2486,-1.249,-1.2512,-1.25,-1.25,-1.2501,-1.2501,-1.2501,-1.2247,-1.2252,-1.2272,-1.2286,-1.23,-1.2314,-1.2322,-1.2339,-1.2352,-1.2371,-1.2384,-1.2399,-1.2419,-1.2447,-1.2459,-1.2471,-1.2477,-1.2478,-1.2478,-1.2478,-1.2475,-1.2485,-1.2475,-1.2475,-1.2475,-1.2475,-1.2476,0,-1.2228,-1.2242,-1.2255,-1.2276,-1.2287,-1.23,-1.2318,-1.2327,-1.2339,-1.2357,-1.237,-1.2388,-1.2404,-1.2426,-1.2444,-1.2449,-1.2456,-1.2453,-1.2453,-1.2456,-1.2469,-1.2467,-1.2447,-1.2447,-1.2447,-1.2447,-1.2447,-1.2447,-1.222,-1.223,-1.2243,-1.226,-1.2274,-1.2289,-1.2298,-1.2311,-1.2325,-1.2344,-1.2358,-1.2372,-1.2391,-1.241,-1.2426,-1.2432,-1.2437,-1.2432,-1.244,-1.2452,-1.2455,-1.2457,-1.2455,-1.2433,-1.2433,-1.2425,-1.2425,-1.2425]},{"header":{"parameterUnit":"m.s-1","parameterCategory":1,"la1":30.2991,"la2":30.254,"lo1":-89.0895,"lo2":-89.0444,"dy":0.0017,"dx":0.0017,"nx":28,"ny":28,"refTime":"2025-01-04T09:00:00:Z","depth":0,"parameterNumber":3,"parameterNumberName":"V-component_of_WINDS"},"data":[0,0,0,0,0,0,0,0,0,0,0,0,0,0,0,0,0,0,0,0,0,0,0,0,0,0,0,0,0,0,0,0,0,0,0,0,0,0,0,0,0,0,0,0,0,0,0,0,0,0,0,0,0,0,0,0,0,0,6.0031,6.0033,0,6.0204,6.0206,6.0208,6.0248,6.0247,6.0246,6.0245,6.0419,6.0424,6.043,0,0,0,0,0,0,0,0,0,0,0,0,0,5.9734,5.9739,6.0031,6.0033,6.0035,6.0204,6.0206,6.0209,6.0248,6.0247,6.0245,6.0244,6.0417,6.0424,6.0431,0,0,0,0,0,0,0,0,0,0,0,0,0,5.988,5.9741,6.0031,6.0075,6.0081,6.0204,6.0207,6.0209,6.0249,6.0247,6.0245,6.0243,6.0415,6.0423,6.0431,6.0521,0,0,6.0458,6.0462,0,0,0,0,0,0,0,0,5.9872,5.9891,6.0067,6.0073,6.0079,6.0203,6.0166,6.0314,6.0249,6.0185,6.0245,6.0242,6.0348,6.0362,6.0398,6.0529,6.0536,6.0459,6.0464,6.0468,6.047,0,0,0,0,0,0,0,5.9862,5.9884,6.0099,6.0069,6.0077,6.0087,6.0106,6.0194,6.0274,6.019,6.0194,6.0214,6.0351,6.039,6.0403,6.0539,6.0458,6.0466,6.0471,6.0475,6.0755,6.0757,0,0,0,0,0,0,5.9844,5.9875,6.0094,6.0105,5.9969,6.0094,6.0115,6.0165,6.0274,6.0288,6.0215,6.0215,6.0376,6.0393,6.0409,6.0524,6.0467,6.0476,6.048,6.0753,6.0756,6.0758,0,0,0,0,0,0,5.9837,5.9863,6.0087,5.9991,6.002,6.0101,6.0157,6.0169,6.0208,6.0292,6.0307,6.024,6.0375,6.0397,6.0494,6.053,6.0479,6.0487,6.075,6.0754,6.0757,6.0752,0,0,0,0,0,0,5.9829,5.9861,5.9895,5.9992,6.0025,6.0169,6.0159,6.0174,6.0223,6.0225,6.032,6.0334,6.0376,6.0481,6.0502,6.0541,6.0494,6.0747,6.0752,6.0756,6.0749,6.0755,6.076,0,0,0,0,0,5.9818,5.9885,5.9897,5.9923,6.007,6.0171,6.019,6.0238,6.0226,6.0262,6.0317,6.033,6.0522,6.049,6.0515,6.0557,6.0745,6.075,6.0755,6.0747,6.0754,6.076,0,0,0,0,0,0,5.9789,5.9899,5.9912,6.0013,6.0083,6.0177,6.0224,6.0243,6.0317,6.0315,6.037,6.0392,6.0486,6.0531,6.0493,6.0651,6.0633,6.0644,6.0619,6.0626,6.0631,6.0619,6.0501,0,0,0,0,0,5.9795,5.9868,5.9959,6.0039,6.0073,6.0143,6.0188,6.022,6.0294,6.0323,6.0384,6.0455,6.0532,6.0581,6.0655,6.0755,6.0778,6.0797,6.0802,6.0806,6.0815,6.0875,6.0885,6.0775,6.0775,6.0775,0,0,5.9806,5.9875,5.9917,6.0035,6.0093,6.0168,6.0167,6.0245,6.0302,6.0334,6.0431,6.0478,6.0561,6.0661,6.0708,6.0701,6.085,6.0812,6.0815,6.0822,6.0881,6.0891,6.0901,6.0778,6.0778,6.0777,0,0,5.9867,5.9925,6.0,6.0059,6.0147,6.0193,6.0211,6.0304,6.0338,6.0436,6.0463,6.0531,6.066,6.072,6.0766,6.0853,6.087,6.0875,6.0903,6.0961,6.097,6.0978,6.1012,6.1023,6.0884,6.0884,6.0884,0,5.987,5.9985,6.0036,6.0115,6.0167,6.0201,6.0279,6.0333,6.044,6.0475,6.0466,6.0633,6.0691,6.0807,6.0829,6.0864,6.0888,6.0866,6.0964,6.0973,6.0981,6.1014,6.1027,6.0884,6.0884,6.0884,6.0884,0,5.9986,6.0066,6.0116,6.0222,6.0279,6.0356,6.0419,6.0471,6.0498,6.0545,6.0646,6.0717,6.0809,6.0838,6.0864,6.0959,6.0953,6.0953,6.0937,6.0991,6.1024,6.1036,6.0884,6.0884,6.0884,6.0884,0,0,6.0033,6.0169,6.0186,6.0237,6.0338,6.04,6.048,6.0571,6.0616,6.0689,6.0759,6.087,6.0872,6.0926,6.0958,6.1009,6.1077,6.1004,6.1007,6.1018,6.119,6.1191,6.1205,6.1088,6.1091,6.1093,6.1185,0,6.0108,6.0254,6.0303,6.0424,6.0499,6.0535,6.0604,6.0674,6.0721,6.0792,6.0843,6.0922,6.0917,6.0951,6.1002,6.1058,6.1113,6.1052,6.1155,6.1158,6.1136,6.1221,6.1222,6.1305,6.1197,6.1199,6.1201,0,6.0215,6.0294,6.0422,6.0518,6.0552,6.0614,6.0704,6.077,6.0851,6.0882,6.0943,6.0973,6.1059,6.1036,6.1156,6.1114,6.1159,6.1193,6.1197,6.121,6.1184,6.124,6.1333,6.1346,6.122,6.1219,6.1217,0,6.0241,6.0378,6.0474,6.0515,6.0628,6.0671,6.072,6.0799,6.0852,6.093,6.0966,6.1052,6.1099,6.1165,6.1218,6.1196,6.1335,6.1316,6.1364,6.1363,6.1393,6.1391,6.1497,6.1417,6.1417,6.1417,6.1417,0,6.0322,6.04,6.0488,6.0547,6.0636,6.0692,6.0779,6.0829,6.09,6.097,6.1004,6.1069,6.1134,6.1208,6.1249,6.1344,6.1364,6.1392,6.1403,6.1391,6.1388,6.1423,6.142,6.142,6.1419,6.1419,6.1418,0,6.0365,6.0427,6.0535,6.0634,6.0661,6.0723,6.0807,6.0867,6.0915,6.1004,6.1028,6.1104,6.1193,6.1252,6.1365,6.1393,6.1497,6.1505,6.1471,6.1477,6.1523,6.1519,6.1658,6.168,6.1582,6.1583,6.1584,0,6.0414,6.0476,6.0583,6.0633,6.0683,6.0763,6.0819,6.0877,6.0933,6.1032,6.1079,6.1171,6.1248,6.1388,6.1453,6.154,6.1552,6.1595,6.1566,6.1553,6.1557,6.1554,6.1562,6.16,6.1601,6.1602,6.1602,0,6.0495,6.0524,6.0603,6.0694,6.076,6.0834,6.0908,6.0947,6.1018,6.1079,6.1172,6.1232,6.1349,6.144,6.1534,6.1584,6.1606,6.1611,6.1627,6.1617,6.1596,6.1612,6.1487,6.1608,6.1607,6.1607,6.1606,6.1606,6.0546,6.0604,6.069,6.0778,6.084,6.0909,6.0971,6.1029,6.1108,6.1209,6.1238,6.1335,6.1417,6.1546,6.1597,6.1675,6.167,6.1693,6.1699,6.1705,6.1707,6.1582,6.1691,6.1691,6.1691,6.1691,6.1691,0,6.0632,6.0689,6.077,6.0874,6.0944,6.096,6.1043,6.11,6.1186,6.1261,6.1337,6.1445,6.1534,6.1608,6.17,6.1748,6.1761,6.1771,6.1769,6.1781,6.1704,6.1682,6.1759,6.1759,6.1759,6.1759,6.1759,6.1759,6.0685,6.0785,6.0824,6.0957,6.1013,6.1111,6.1157,6.1222,6.1283,6.1403,6.1478,6.1526,6.1601,6.17,6.1783,6.1802,6.1836,6.1845,6.1866,6.1793,6.1786,6.1779,6.1759,6.1851,6.1851,6.1938,6.1938,6.1939]}]]